Time,TemperatureF,DewpointF,PressureIn,WindDirection,WindDirectionDegrees,WindSpeedMPH,WindSpeedGustMPH,Humidity,HourlyPrecipIn,Conditions,Clouds,dailyrainin,SoftwareType,DateUTC
2013-11-21 00:00:00,39.0,33.4,30.02,NW,323,10.0,10.0,80,0.00,,,0.00,Wunderground v.1.15,2013-11-21 06:00:00,
2013-11-21 00:05:00,38.8,33.2,30.02,NW,325,9.0,10.0,80,0.00,,,0.00,Wunderground v.1.15,2013-11-21 06:05:00,
2013-11-21 00:10:00,38.6,33.0,30.02,NW,326,10.0,14.0,80,0.00,,,0.00,Wunderground v.1.15,2013-11-21 06:10:00,
2013-11-21 00:15:00,38.4,32.8,30.03,NW,322,11.0,14.0,80,0.00,,,0.00,Wunderground v.1.15,2013-11-21 06:15:00,
2013-11-21 00:20:00,38.2,32.9,30.03,NNW,343,11.0,11.0,81,0.00,,,0.00,Wunderground v.1.15,2013-11-21 06:20:00,
2013-11-21 00:25:00,38.0,32.7,30.04,WNW,300,11.0,11.0,81,0.00,,,0.00,Wunderground v.1.15,2013-11-21 06:25:00,
2013-11-21 00:30:00,37.8,32.5,30.04,NNW,333,10.0,10.0,81,0.00,,,0.00,Wunderground v.1.15,2013-11-21 06:30:00,
2013-11-21 00:40:00,37.3,32.3,30.05,NW,323,10.0,10.0,82,0.00,,,0.00,Wunderground v.1.15,2013-11-21 06:40:00,
2013-11-21 00:45:00,37.1,32.1,30.05,NW,316,10.0,10.0,82,0.00,,,0.00,Wunderground v.1.15,2013-11-21 06:45:00,
2013-11-21 00:50:00,36.9,31.9,30.04,North,350,11.0,11.0,82,0.00,,,0.00,Wunderground v.1.15,2013-11-21 06:50:00,
2013-11-21 00:55:00,36.6,31.6,30.04,NNW,337,11.0,11.0,82,0.00,,,0.00,Wunderground v.1.15,2013-11-21 06:55:00,
2013-11-21 01:00:00,36.3,31.0,30.05,North,349,12.0,12.0,81,0.00,,,0.00,Wunderground v.1.15,2013-11-21 07:00:00,
2013-11-21 01:05:00,36.1,30.8,30.05,NNW,327,12.0,12.0,81,0.00,,,0.00,Wunderground v.1.15,2013-11-21 07:05:00,
2013-11-21 01:10:00,35.9,30.6,30.05,NNW,348,13.0,13.0,81,0.00,,,0.00,Wunderground v.1.15,2013-11-21 07:10:00,
2013-11-21 01:15:00,35.6,30.3,30.05,North,360,11.0,13.0,81,0.00,,,0.00,Wunderground v.1.15,2013-11-21 07:15:00,
2013-11-21 01:20:00,35.3,30.4,30.06,NNE,13,10.0,12.0,82,0.00,,,0.00,Wunderground v.1.15,2013-11-21 07:20:00,
2013-11-21 01:25:00,34.8,29.9,30.06,North,10,10.0,14.0,82,0.00,,,0.00,Wunderground v.1.15,2013-11-21 07:25:00,
2013-11-21 01:30:00,34.5,29.3,30.06,NNW,348,12.0,12.0,81,0.00,,,0.00,Wunderground v.1.15,2013-11-21 07:30:00,
2013-11-21 01:35:00,34.1,28.9,30.07,North,360,13.0,13.0,81,0.00,,,0.00,Wunderground v.1.15,2013-11-21 07:35:00,
2013-11-21 01:45:00,33.6,28.7,30.06,NW,322,12.0,12.0,82,0.00,,,0.00,Wunderground v.1.15,2013-11-21 07:45:00,
2013-11-21 01:50:00,33.4,28.5,30.07,NW,317,14.0,14.0,82,0.00,,,0.00,Wunderground v.1.15,2013-11-21 07:50:00,
2013-11-21 01:55:00,33.1,28.2,30.07,NNW,337,13.0,16.0,82,0.00,,,0.00,Wunderground v.1.15,2013-11-21 07:55:00,
2013-11-21 02:00:00,32.8,27.9,30.08,North,9,12.0,12.0,82,0.00,,,0.00,Wunderground v.1.15,2013-11-21 08:00:00,
2013-11-21 02:05:00,32.5,27.6,30.08,North,355,13.0,13.0,82,0.00,,,0.00,Wunderground v.1.15,2013-11-21 08:05:00,
2013-11-21 02:15:00,32.0,27.1,30.08,North,355,15.0,16.0,82,0.00,,,0.00,Wunderground v.1.15,2013-11-21 08:15:00,
2013-11-21 02:20:00,31.8,26.9,30.08,NNW,329,14.0,19.0,82,0.00,,,0.00,Wunderground v.1.15,2013-11-21 08:20:00,
2013-11-21 02:25:00,31.7,26.8,30.09,NW,325,14.0,19.0,82,0.00,,,0.00,Wunderground v.1.15,2013-11-21 08:25:00,
2013-11-21 02:30:00,31.5,26.6,30.10,North,349,16.0,16.0,82,0.00,,,0.00,Wunderground v.1.15,2013-11-21 08:30:00,
2013-11-21 02:35:00,31.4,26.2,30.09,North,350,16.0,16.0,81,0.00,,,0.00,Wunderground v.1.15,2013-11-21 08:35:00,
2013-11-21 02:40:00,31.2,26.3,30.10,NW,317,15.0,18.0,82,0.00,,,0.00,Wunderground v.1.15,2013-11-21 08:40:00,
2013-11-21 02:50:00,30.9,26.3,30.11,NNW,340,13.0,17.0,83,0.00,,,0.00,Wunderground v.1.15,2013-11-21 08:50:00,
2013-11-21 02:55:00,30.9,26.1,30.11,NNW,330,13.0,17.0,82,0.00,,,0.00,Wunderground v.1.15,2013-11-21 08:55:00,
2013-11-21 03:00:00,31.1,26.0,30.12,North,355,14.0,14.0,81,0.00,,,0.00,Wunderground v.1.15,2013-11-21 09:00:00,
2013-11-21 03:05:00,31.1,26.0,30.13,NNW,342,14.0,14.0,81,0.00,,,0.00,Wunderground v.1.15,2013-11-21 09:05:00,
2013-11-21 03:10:00,31.1,26.0,30.14,NNW,346,12.0,12.0,81,0.00,,,0.00,Wunderground v.1.15,2013-11-21 09:10:00,
2013-11-21 03:20:00,31.1,25.7,30.16,North,355,11.0,11.0,80,0.00,,,0.00,Wunderground v.1.15,2013-11-21 09:20:00,
2013-11-21 03:25:00,31.1,25.7,30.16,North,5,10.0,11.0,80,0.00,,,0.00,Wunderground v.1.15,2013-11-21 09:25:00,
2013-11-21 03:30:00,31.0,25.2,30.15,NNE,14,11.0,21.0,79,0.00,,,0.00,Wunderground v.1.15,2013-11-21 09:30:00,
2013-11-21 03:35:00,31.0,24.9,30.16,North,9,12.0,21.0,78,0.00,,,0.00,Wunderground v.1.15,2013-11-21 09:35:00,
2013-11-21 03:40:00,30.9,24.8,30.16,North,355,12.0,12.0,78,0.00,,,0.00,Wunderground v.1.15,2013-11-21 09:40:00,
2013-11-21 03:45:00,30.8,25.1,30.16,NW,312,10.0,12.0,79,0.00,,,0.00,Wunderground v.1.15,2013-11-21 09:45:00,
2013-11-21 03:55:00,30.6,24.6,30.16,NNE,19,13.0,17.0,78,0.00,,,0.00,Wunderground v.1.15,2013-11-21 09:55:00,
2013-11-21 04:00:00,30.5,24.1,30.16,North,11,14.0,17.0,77,0.00,,,0.00,Wunderground v.1.15,2013-11-21 10:00:00,
2013-11-21 04:05:00,30.4,24.1,30.16,NNW,331,15.0,17.0,77,0.00,,,0.00,Wunderground v.1.15,2013-11-21 10:05:00,
2013-11-21 04:10:00,30.3,24.0,30.17,NNW,348,14.0,14.0,77,0.00,,,0.00,Wunderground v.1.15,2013-11-21 10:10:00,
2013-11-21 04:15:00,30.2,23.9,30.17,North,5,12.0,14.0,77,0.00,,,0.00,Wunderground v.1.15,2013-11-21 10:15:00,
2013-11-21 04:25:00,29.5,22.9,30.18,NNW,334,13.0,13.0,76,0.00,,,0.00,Wunderground v.1.15,2013-11-21 10:25:00,
2013-11-21 04:30:00,29.1,22.5,30.18,NNW,335,14.0,14.0,76,0.00,,,0.00,Wunderground v.1.15,2013-11-21 10:30:00,
2013-11-21 04:35:00,28.9,22.3,30.19,NNW,329,12.0,14.0,76,0.00,,,0.00,Wunderground v.1.15,2013-11-21 10:35:00,
2013-11-21 04:40:00,28.7,22.1,30.19,NW,323,12.0,15.0,76,0.00,,,0.00,Wunderground v.1.15,2013-11-21 10:40:00,
2013-11-21 04:45:00,28.6,22.0,30.19,NNW,345,14.0,15.0,76,0.00,,,0.00,Wunderground v.1.15,2013-11-21 10:45:00,
2013-11-21 04:50:00,28.5,21.9,30.19,NE,38,14.0,14.0,76,0.00,,,0.00,Wunderground v.1.15,2013-11-21 10:50:00,
2013-11-21 04:55:00,28.3,21.7,30.18,North,10,13.0,14.0,76,0.00,,,0.00,Wunderground v.1.15,2013-11-21 10:55:00,
2013-11-21 05:00:00,28.1,21.5,30.18,North,351,12.0,12.0,76,0.00,,,0.00,Wunderground v.1.15,2013-11-21 11:00:00,
2013-11-21 05:05:00,27.9,21.0,30.19,North,355,12.0,22.0,75,0.00,,,0.00,Wunderground v.1.15,2013-11-21 11:05:00,
2013-11-21 05:10:00,27.8,20.9,30.21,NW,318,14.0,14.0,75,0.00,,,0.00,Wunderground v.1.15,2013-11-21 11:10:00,
2013-11-21 05:15:00,27.8,20.9,30.22,North,355,14.0,17.0,75,0.00,,,0.00,Wunderground v.1.15,2013-11-21 11:15:00,
2013-11-21 05:20:00,27.7,20.8,30.22,North,355,15.0,19.0,75,0.00,,,0.00,Wunderground v.1.15,2013-11-21 11:20:00,
2013-11-21 05:30:00,27.8,20.9,30.23,NNW,346,13.0,13.0,75,0.00,,,0.00,Wunderground v.1.15,2013-11-21 11:30:00,
2013-11-21 05:35:00,27.8,20.9,30.24,NNW,348,11.0,14.0,75,0.00,,,0.00,Wunderground v.1.15,2013-11-21 11:35:00,
2013-11-21 05:40:00,27.7,20.8,30.24,North,5,10.0,11.0,75,0.00,,,0.00,Wunderground v.1.15,2013-11-21 11:40:00,
2013-11-21 05:45:00,27.7,20.8,30.24,NNW,348,11.0,11.0,75,0.00,,,0.00,Wunderground v.1.15,2013-11-21 11:45:00,
2013-11-21 05:50:00,27.5,20.0,30.24,North,355,13.0,18.0,73,0.00,,,0.00,Wunderground v.1.15,2013-11-21 11:50:00,
2013-11-21 06:00:00,27.1,19.9,30.25,North,355,12.0,12.0,74,0.00,,,0.00,Wunderground v.1.15,2013-11-21 12:00:00,
2013-11-21 06:05:00,27.0,19.8,30.25,North,5,12.0,16.0,74,0.00,,,0.00,Wunderground v.1.15,2013-11-21 12:05:00,
2013-11-21 06:10:00,26.9,19.7,30.26,North,355,12.0,14.0,74,0.00,,,0.00,Wunderground v.1.15,2013-11-21 12:10:00,
2013-11-21 06:15:00,26.8,19.6,30.26,North,5,12.0,17.0,74,0.00,,,0.00,Wunderground v.1.15,2013-11-21 12:15:00,
2013-11-21 06:20:00,26.5,19.0,30.26,North,5,13.0,13.0,73,0.00,,,0.00,Wunderground v.1.15,2013-11-21 12:20:00,
2013-11-21 06:25:00,26.3,18.8,30.27,NW,314,13.0,16.0,73,0.00,,,0.00,Wunderground v.1.15,2013-11-21 12:25:00,
2013-11-21 06:35:00,25.9,18.4,30.27,North,5,15.0,15.0,73,0.00,,,0.00,Wunderground v.1.15,2013-11-21 12:35:00,
2013-11-21 06:40:00,25.8,18.3,30.27,North,11,15.0,15.0,73,0.00,,,0.00,Wunderground v.1.15,2013-11-21 12:40:00,
2013-11-21 06:45:00,25.8,18.7,30.28,NNW,344,12.0,17.0,74,0.00,,,0.00,Wunderground v.1.15,2013-11-21 12:45:00,
2013-11-21 06:50:00,25.5,18.0,30.28,North,360,12.0,15.0,73,0.00,,,0.00,Wunderground v.1.15,2013-11-21 12:50:00,
2013-11-21 06:55:00,25.4,17.9,30.28,NW,309,14.0,15.0,73,0.00,,,0.00,Wunderground v.1.15,2013-11-21 12:55:00,
2013-11-21 07:05:00,25.2,18.1,30.28,North,360,14.0,16.0,74,0.00,,,0.00,Wunderground v.1.15,2013-11-21 13:05:00,
2013-11-21 07:10:00,25.3,17.9,30.29,NNW,348,13.0,16.0,73,0.00,,,0.00,Wunderground v.1.15,2013-11-21 13:10:00,
2013-11-21 07:15:00,25.2,18.1,30.29,NNW,334,12.0,16.0,74,0.00,,,0.00,Wunderground v.1.15,2013-11-21 13:15:00,
2013-11-21 07:20:00,25.0,17.6,30.30,NW,326,12.0,12.0,73,0.00,,,0.00,Wunderground v.1.15,2013-11-21 13:20:00,
2013-11-21 07:25:00,25.0,17.9,30.29,NNW,333,11.0,12.0,74,0.00,,,0.00,Wunderground v.1.15,2013-11-21 13:25:00,
2013-11-21 07:30:00,24.9,17.5,30.29,NNE,32,11.0,11.0,73,0.00,,,0.00,Wunderground v.1.15,2013-11-21 13:30:00,
2013-11-21 07:40:00,24.7,17.0,30.30,NNE,25,15.0,18.0,72,0.00,,,0.00,Wunderground v.1.15,2013-11-21 13:40:00,
2013-11-21 07:45:00,24.6,16.9,30.29,NE,36,15.0,18.0,72,0.00,,,0.00,Wunderground v.1.15,2013-11-21 13:45:00,
2013-11-21 07:50:00,24.6,17.2,30.30,NNE,12,14.0,14.0,73,0.00,,,0.00,Wunderground v.1.15,2013-11-21 13:50:00,
2013-11-21 07:55:00,24.6,16.9,30.31,NNW,344,14.0,14.0,72,0.00,,,0.00,Wunderground v.1.15,2013-11-21 13:55:00,
2013-11-21 08:00:00,24.6,16.9,30.30,NE,40,13.0,13.0,72,0.00,,,0.00,Wunderground v.1.15,2013-11-21 14:00:00,
2013-11-21 08:05:00,24.5,16.8,30.30,NNW,329,14.0,17.0,72,0.00,,,0.00,Wunderground v.1.15,2013-11-21 14:05:00,
2013-11-21 08:10:00,24.4,16.7,30.31,North,349,15.0,15.0,72,0.00,,,0.00,Wunderground v.1.15,2013-11-21 14:10:00,
2013-11-21 08:20:00,24.3,16.9,30.31,North,360,13.0,13.0,73,0.00,,,0.00,Wunderground v.1.15,2013-11-21 14:20:00,
2013-11-21 08:25:00,24.2,16.5,30.31,North,5,14.0,21.0,72,0.00,,,0.00,Wunderground v.1.15,2013-11-21 14:25:00,
2013-11-21 08:30:00,24.1,16.4,30.31,NW,315,16.0,16.0,72,0.00,,,0.00,Wunderground v.1.15,2013-11-21 14:30:00,
2013-11-21 08:35:00,24.1,16.4,30.31,North,5,14.0,16.0,72,0.00,,,0.00,Wunderground v.1.15,2013-11-21 14:35:00,
2013-11-21 08:40:00,24.0,16.3,30.32,NNW,347,14.0,16.0,72,0.00,,,0.00,Wunderground v.1.15,2013-11-21 14:40:00,
2013-11-21 08:45:00,23.8,16.1,30.32,NNW,329,15.0,16.0,72,0.00,,,0.00,Wunderground v.1.15,2013-11-21 14:45:00,
2013-11-21 08:50:00,23.9,16.2,30.32,NNW,333,15.0,15.0,72,0.00,,,0.00,Wunderground v.1.15,2013-11-21 14:50:00,
2013-11-21 08:55:00,23.9,16.2,30.32,NNW,346,13.0,15.0,72,0.00,,,0.00,Wunderground v.1.15,2013-11-21 14:55:00,
2013-11-21 09:00:00,23.8,15.8,30.32,NNW,343,13.0,17.0,71,0.00,,,0.00,Wunderground v.1.15,2013-11-21 15:00:00,
2013-11-21 09:05:00,23.8,16.1,30.33,North,355,13.0,17.0,72,0.00,,,0.00,Wunderground v.1.15,2013-11-21 15:05:00,
2013-11-21 09:15:00,23.8,16.1,30.33,North,360,12.0,12.0,72,0.00,,,0.00,Wunderground v.1.15,2013-11-21 15:15:00,
2013-11-21 09:20:00,23.8,16.1,30.33,North,355,13.0,13.0,72,0.00,,,0.00,Wunderground v.1.15,2013-11-21 15:20:00,
2013-11-21 09:25:00,23.8,16.1,30.33,NW,325,12.0,13.0,72,0.00,,,0.00,Wunderground v.1.15,2013-11-21 15:25:00,
2013-11-21 09:30:00,23.9,16.2,30.34,NE,46,12.0,18.0,72,0.00,,,0.00,Wunderground v.1.15,2013-11-21 15:30:00,
2013-11-21 09:35:00,23.9,16.2,30.34,NNW,334,12.0,18.0,72,0.00,,,0.00,Wunderground v.1.15,2013-11-21 15:35:00,
2013-11-21 09:45:00,23.8,15.8,30.35,North,11,14.0,20.0,71,0.00,,,0.00,Wunderground v.1.15,2013-11-21 15:45:00,
2013-11-21 09:50:00,23.8,15.8,30.35,NNE,13,14.0,14.0,71,0.00,,,0.00,Wunderground v.1.15,2013-11-21 15:50:00,
2013-11-21 09:55:00,23.9,16.2,30.35,NNW,348,13.0,14.0,72,0.00,,,0.00,Wunderground v.1.15,2013-11-21 15:55:00,
2013-11-21 10:00:00,23.9,15.9,30.35,North,5,13.0,20.0,71,0.00,,,0.00,Wunderground v.1.15,2013-11-21 16:00:00,
2013-11-21 10:05:00,23.7,15.7,30.36,NNE,19,14.0,20.0,71,0.00,,,0.00,Wunderground v.1.15,2013-11-21 16:05:00,
2013-11-21 10:10:00,23.8,15.8,30.36,NNE,19,15.0,15.0,71,0.00,,,0.00,Wunderground v.1.15,2013-11-21 16:10:00,
2013-11-21 10:20:00,23.7,15.3,30.37,NNE,25,14.0,14.0,70,0.00,,,0.00,Wunderground v.1.15,2013-11-21 16:20:00,
2013-11-21 10:25:00,23.8,15.4,30.38,NNW,327,14.0,14.0,70,0.00,,,0.00,Wunderground v.1.15,2013-11-21 16:25:00,
2013-11-21 10:30:00,23.8,15.4,30.38,North,355,13.0,18.0,70,0.00,,,0.00,Wunderground v.1.15,2013-11-21 16:30:00,
2013-11-21 10:35:00,23.7,15.3,30.38,North,11,13.0,18.0,70,0.00,,,0.00,Wunderground v.1.15,2013-11-21 16:35:00,
2013-11-21 10:40:00,23.6,15.2,30.39,NNW,344,13.0,19.0,70,0.00,,,0.00,Wunderground v.1.15,2013-11-21 16:40:00,
2013-11-21 10:50:00,23.8,15.4,30.39,NNE,20,11.0,11.0,70,0.00,,,0.00,Wunderground v.1.15,2013-11-21 16:50:00,
2013-11-21 10:55:00,23.8,15.1,30.40,NNW,348,11.0,11.0,69,0.00,,,0.00,Wunderground v.1.15,2013-11-21 16:55:00,
2013-11-21 11:00:00,23.8,15.1,30.40,NNW,343,12.0,15.0,69,0.00,,,0.00,Wunderground v.1.15,2013-11-21 17:00:00,
2013-11-21 11:05:00,23.8,15.1,30.40,NNE,21,12.0,15.0,69,0.00,,,0.00,Wunderground v.1.15,2013-11-21 17:05:00,
2013-11-21 11:10:00,23.7,15.0,30.40,NNE,19,11.0,11.0,69,0.00,,,0.00,Wunderground v.1.15,2013-11-21 17:10:00,
2013-11-21 11:15:00,23.7,15.0,30.40,NNE,21,10.0,11.0,69,0.00,,,0.00,Wunderground v.1.15,2013-11-21 17:15:00,
2013-11-21 11:25:00,23.8,14.8,30.40,NNW,348,11.0,15.0,68,0.00,,,0.00,Wunderground v.1.15,2013-11-21 17:25:00,
2013-11-21 11:30:00,23.9,14.9,30.40,North,355,12.0,12.0,68,0.00,,,0.00,Wunderground v.1.15,2013-11-21 17:30:00,
2013-11-21 11:35:00,23.9,14.9,30.40,NNE,30,11.0,20.0,68,0.00,,,0.00,Wunderground v.1.15,2013-11-21 17:35:00,
2013-11-21 11:40:00,23.6,14.6,30.40,NW,321,12.0,21.0,68,0.00,,,0.00,Wunderground v.1.15,2013-11-21 17:40:00,
2013-11-21 11:45:00,23.6,14.6,30.40,North,355,13.0,21.0,68,0.00,,,0.00,Wunderground v.1.15,2013-11-21 17:45:00,
2013-11-21 11:50:00,23.6,14.6,30.39,NNE,12,13.0,13.0,68,0.00,,,0.00,Wunderground v.1.15,2013-11-21 17:50:00,
2013-11-21 11:55:00,23.6,14.6,30.40,North,355,13.0,15.0,68,0.00,,,0.00,Wunderground v.1.15,2013-11-21 17:55:00,
2013-11-21 12:00:00,23.7,14.7,30.40,North,9,12.0,12.0,68,0.00,,,0.00,Wunderground v.1.15,2013-11-21 18:00:00,
2013-11-21 12:05:00,23.6,14.2,30.40,North,355,12.0,16.0,67,0.00,,,0.00,Wunderground v.1.15,2013-11-21 18:05:00,
2013-11-21 12:10:00,23.5,14.5,30.41,North,9,12.0,12.0,68,0.00,,,0.00,Wunderground v.1.15,2013-11-21 18:10:00,
2013-11-21 12:15:00,23.6,14.6,30.40,North,355,12.0,13.0,68,0.00,,,0.00,Wunderground v.1.15,2013-11-21 18:15:00,
2013-11-21 12:25:00,23.6,14.6,30.41,NNW,337,12.0,16.0,68,0.00,,,0.00,Wunderground v.1.15,2013-11-21 18:25:00,
2013-11-21 12:30:00,23.7,14.3,30.41,NNE,19,12.0,12.0,67,0.00,,,0.00,Wunderground v.1.15,2013-11-21 18:30:00,
2013-11-21 12:35:00,23.9,14.9,30.40,NNW,342,12.0,12.0,68,0.00,,,0.00,Wunderground v.1.15,2013-11-21 18:35:00,
2013-11-21 12:40:00,24.0,14.6,30.40,North,5,11.0,19.0,67,0.00,,,0.00,Wunderground v.1.15,2013-11-21 18:40:00,
2013-11-21 12:45:00,23.8,14.1,30.41,NNE,14,12.0,19.0,66,0.00,,,0.00,Wunderground v.1.15,2013-11-21 18:45:00,
2013-11-21 12:50:00,23.9,14.5,30.42,NNW,330,12.0,12.0,67,0.00,,,0.00,Wunderground v.1.15,2013-11-21 18:50:00,
2013-11-21 13:00:00,23.8,14.4,30.42,NNE,23,11.0,11.0,67,0.00,,,0.00,Wunderground v.1.15,2013-11-21 19:00:00,
2013-11-21 13:05:00,23.8,14.4,30.42,North,5,11.0,11.0,67,0.00,,,0.00,Wunderground v.1.15,2013-11-21 19:05:00,
2013-11-21 13:10:00,23.8,14.4,30.42,NW,325,11.0,12.0,67,0.00,,,0.00,Wunderground v.1.15,2013-11-21 19:10:00,
2013-11-21 13:15:00,23.6,14.2,30.42,NNE,14,12.0,12.0,67,0.00,,,0.00,Wunderground v.1.15,2013-11-21 19:15:00,
2013-11-21 13:20:00,23.4,14.0,30.42,NNE,13,13.0,13.0,67,0.00,,,0.00,Wunderground v.1.15,2013-11-21 19:20:00,
2013-11-21 13:30:00,23.4,14.0,30.42,NNW,336,13.0,13.0,67,0.00,,,0.00,Wunderground v.1.15,2013-11-21 19:30:00,
2013-11-21 13:35:00,23.5,14.1,30.42,North,360,13.0,13.0,67,0.00,,,0.00,Wunderground v.1.15,2013-11-21 19:35:00,
2013-11-21 13:40:00,23.4,14.4,30.42,NNE,32,12.0,14.0,68,0.00,,,0.00,Wunderground v.1.15,2013-11-21 19:40:00,
2013-11-21 13:45:00,23.4,14.0,30.43,North,5,12.0,14.0,67,0.00,,,0.00,Wunderground v.1.15,2013-11-21 19:45:00,
2013-11-21 13:50:00,23.3,14.0,30.42,North,9,13.0,13.0,67,0.00,,,0.00,Wunderground v.1.15,2013-11-21 19:50:00,
2013-11-21 13:55:00,23.1,13.8,30.42,NE,36,14.0,14.0,67,0.00,,,0.00,Wunderground v.1.15,2013-11-21 19:55:00,
2013-11-21 14:05:00,23.2,13.9,30.42,North,355,12.0,13.0,67,0.00,,,0.00,Wunderground v.1.15,2013-11-21 20:05:00,
2013-11-21 14:10:00,23.1,13.8,30.42,North,5,13.0,13.0,67,0.00,,,0.00,Wunderground v.1.15,2013-11-21 20:10:00,
2013-11-21 14:15:00,23.0,13.7,30.42,NW,317,14.0,14.0,67,0.00,,,0.00,Wunderground v.1.15,2013-11-21 20:15:00,
2013-11-21 14:20:00,22.9,13.9,30.42,NNE,23,14.0,15.0,68,0.00,,,0.00,Wunderground v.1.15,2013-11-21 20:20:00,
2013-11-21 14:25:00,23.0,13.7,30.42,NNE,17,14.0,15.0,67,0.00,,,0.00,Wunderground v.1.15,2013-11-21 20:25:00,
2013-11-21 14:35:00,23.1,13.8,30.43,NNE,15,13.0,17.0,67,0.00,,,0.00,Wunderground v.1.15,2013-11-21 20:35:00,
2013-11-21 14:40:00,23.1,14.1,30.42,North,5,13.0,13.0,68,0.00,,,0.00,Wunderground v.1.15,2013-11-21 20:40:00,
2013-11-21 14:45:00,23.1,14.1,30.43,NNW,338,12.0,15.0,68,0.00,,,0.00,Wunderground v.1.15,2013-11-21 20:45:00,
2013-11-21 14:50:00,23.1,14.1,30.43,North,5,12.0,17.0,68,0.00,,,0.00,Wunderground v.1.15,2013-11-21 20:50:00,
2013-11-21 14:55:00,23.0,14.0,30.44,NNW,327,12.0,17.0,68,0.00,,,0.00,Wunderground v.1.15,2013-11-21 20:55:00,
2013-11-21 15:00:00,23.1,14.4,30.44,NW,307,12.0,13.0,69,0.00,,,0.00,Wunderground v.1.15,2013-11-21 21:00:00,
2013-11-21 15:10:00,23.2,14.5,30.45,NNE,23,12.0,12.0,69,0.00,,,0.00,Wunderground v.1.15,2013-11-21 21:10:00,
2013-11-21 15:15:00,23.1,14.4,30.45,NNW,337,12.0,12.0,69,0.00,,,0.00,Wunderground v.1.15,2013-11-21 21:15:00,
2013-11-21 15:20:00,23.0,14.3,30.46,NNW,344,13.0,13.0,69,0.00,,,0.00,Wunderground v.1.15,2013-11-21 21:20:00,
2013-11-21 15:25:00,23.0,14.7,30.46,NNE,30,13.0,13.0,70,0.00,,,0.00,Wunderground v.1.15,2013-11-21 21:25:00,
2013-11-21 15:30:00,23.1,14.8,30.46,North,360,12.0,12.0,70,0.00,,,0.00,Wunderground v.1.15,2013-11-21 21:30:00,
2013-11-21 15:35:00,23.1,14.4,30.46,NNW,347,11.0,12.0,69,0.00,,,0.00,Wunderground v.1.15,2013-11-21 21:35:00,
2013-11-21 15:40:00,22.8,14.5,30.47,North,355,12.0,19.0,70,0.00,,,0.00,Wunderground v.1.15,2013-11-21 21:40:00,
2013-11-21 15:45:00,22.7,14.7,30.47,NW,323,13.0,19.0,71,0.00,,,0.00,Wunderground v.1.15,2013-11-21 21:45:00,
2013-11-21 15:50:00,22.5,14.2,30.47,NNW,348,13.0,16.0,70,0.00,,,0.00,Wunderground v.1.15,2013-11-21 21:50:00,
2013-11-21 15:55:00,22.6,14.3,30.47,NNW,327,14.0,16.0,70,0.00,,,0.00,Wunderground v.1.15,2013-11-21 21:55:00,
2013-11-21 16:00:00,22.5,14.2,30.48,North,355,14.0,14.0,70,0.00,,,0.00,Wunderground v.1.15,2013-11-21 22:00:00,
2013-11-21 16:10:00,22.4,14.4,30.49,NW,304,12.0,19.0,71,0.00,,,0.00,Wunderground v.1.15,2013-11-21 22:10:00,
2013-11-21 16:15:00,22.2,14.5,30.50,North,355,14.0,19.0,72,0.00,,,0.00,Wunderground v.1.15,2013-11-21 22:15:00,
2013-11-21 16:20:00,22.0,14.3,30.50,North,350,14.0,21.0,72,0.00,,,0.00,Wunderground v.1.15,2013-11-21 22:20:00,
2013-11-21 16:25:00,22.0,14.3,30.50,North,349,14.0,21.0,72,0.00,,,0.00,Wunderground v.1.15,2013-11-21 22:25:00,
2013-11-21 16:30:00,22.0,14.3,30.51,NNW,342,14.0,17.0,72,0.00,,,0.00,Wunderground v.1.15,2013-11-21 22:30:00,
2013-11-21 16:35:00,22.0,14.3,30.51,NNW,348,14.0,17.0,72,0.00,,,0.00,Wunderground v.1.15,2013-11-21 22:35:00,
2013-11-21 16:45:00,22.0,14.3,30.52,NW,320,12.0,12.0,72,0.00,,,0.00,Wunderground v.1.15,2013-11-21 22:45:00,
2013-11-21 16:50:00,21.9,14.3,30.52,NW,311,13.0,14.0,72,0.00,,,0.00,Wunderground v.1.15,2013-11-21 22:50:00,
2013-11-21 16:55:00,21.8,14.5,30.53,NW,318,13.0,14.0,73,0.00,,,0.00,Wunderground v.1.15,2013-11-21 22:55:00,
2013-11-21 17:00:00,21.7,14.4,30.53,NNW,327,13.0,14.0,73,0.00,,,0.00,Wunderground v.1.15,2013-11-21 23:00:00,
2013-11-21 17:05:00,21.5,14.2,30.53,NNE,17,14.0,17.0,73,0.00,,,0.00,Wunderground v.1.15,2013-11-21 23:05:00,
2013-11-21 17:15:00,21.2,13.9,30.53,NNW,347,13.0,21.0,73,0.00,,,0.00,Wunderground v.1.15,2013-11-21 23:15:00,
2013-11-21 17:20:00,21.2,14.2,30.54,North,5,14.0,16.0,74,0.00,,,0.00,Wunderground v.1.15,2013-11-21 23:20:00,
2013-11-21 17:25:00,21.1,14.7,30.54,NNW,333,13.0,16.0,76,0.00,,,0.00,Wunderground v.1.15,2013-11-21 23:25:00,
2013-11-21 17:30:00,20.9,14.5,30.54,NNE,25,12.0,12.0,76,0.00,,,0.00,Wunderground v.1.15,2013-11-21 23:30:00,
2013-11-21 17:35:00,20.8,14.7,30.55,NNW,335,12.0,12.0,77,0.00,,,0.00,Wunderground v.1.15,2013-11-21 23:35:00,
2013-11-21 17:40:00,20.4,14.3,30.55,North,355,12.0,14.0,77,0.00,,,0.00,Wunderground v.1.15,2013-11-21 23:40:00,
2013-11-21 17:50:00,19.7,14.5,30.55,North,5,12.0,12.0,80,0.00,,,0.00,Wunderground v.1.15,2013-11-21 23:50:00,
2013-11-21 17:55:00,19.7,14.8,30.56,WNW,291,12.0,14.0,81,0.00,,,0.00,Wunderground v.1.15,2013-11-21 23:55:00,
2013-11-21 18:00:00,19.6,14.7,30.56,North,355,13.0,13.0,81,0.00,,,0.00,Wunderground v.1.15,2013-11-22 00:00:00,
2013-11-21 18:05:00,19.5,14.9,30.57,NNW,327,11.0,13.0,82,0.00,,,0.00,Wunderground v.1.15,2013-11-22 00:05:00,
2013-11-21 18:10:00,19.4,15.1,30.57,North,350,11.0,11.0,83,0.00,,,0.00,Wunderground v.1.15,2013-11-22 00:10:00,
2013-11-21 18:20:00,19.4,15.4,30.57,NW,312,11.0,11.0,84,0.00,,,0.00,Wunderground v.1.15,2013-11-22 00:20:00,
2013-11-21 18:25:00,19.5,15.7,30.57,NNW,344,12.0,12.0,85,0.00,,,0.00,Wunderground v.1.15,2013-11-22 00:25:00,
2013-11-21 18:30:00,19.6,15.8,30.57,NNW,331,10.0,10.0,85,0.00,,,0.00,Wunderground v.1.15,2013-11-22 00:30:00,
2013-11-21 18:35:00,19.6,15.8,30.57,NNW,336,9.0,10.0,85,0.00,,,0.00,Wunderground v.1.15,2013-11-22 00:35:00,
2013-11-21 18:40:00,19.5,15.7,30.57,NW,322,11.0,22.0,85,0.00,,,0.00,Wunderground v.1.15,2013-11-22 00:40:00,
2013-11-21 18:45:00,19.4,15.6,30.58,North,355,13.0,22.0,85,0.00,,,0.00,Wunderground v.1.15,2013-11-22 00:45:00,
2013-11-21 18:50:00,19.4,15.6,30.59,NW,325,11.0,11.0,85,0.00,,,0.00,Wunderground v.1.15,2013-11-22 00:50:00,
2013-11-21 18:55:00,19.4,15.6,30.59,WNW,302,10.0,11.0,85,0.00,,,0.00,Wunderground v.1.15,2013-11-22 00:55:00,
2013-11-21 19:00:00,19.5,15.7,30.60,NW,317,11.0,22.0,85,0.00,,,0.00,Wunderground v.1.15,2013-11-22 01:00:00,
2013-11-21 19:05:00,19.2,15.4,30.59,North,350,12.0,22.0,85,0.00,,,0.00,Wunderground v.1.15,2013-11-22 01:05:00,
2013-11-21 19:10:00,19.2,15.2,30.60,NW,314,13.0,13.0,84,0.00,,,0.00,Wunderground v.1.15,2013-11-22 01:10:00,
2013-11-21 19:20:00,19.3,15.3,30.60,North,360,12.0,14.0,84,0.00,,,0.00,Wunderground v.1.15,2013-11-22 01:20:00,
2013-11-21 19:25:00,19.3,15.3,30.61,NNW,348,11.0,14.0,84,0.00,,,0.00,Wunderground v.1.15,2013-11-22 01:25:00,
2013-11-21 19:30:00,19.3,15.3,30.62,NW,308,11.0,11.0,84,0.00,,,0.00,Wunderground v.1.15,2013-11-22 01:30:00,
2013-11-21 19:35:00,19.4,15.4,30.63,NW,325,12.0,14.0,84,0.00,,,0.00,Wunderground v.1.15,2013-11-22 01:35:00,
2013-11-21 19:40:00,19.4,15.4,30.63,North,355,11.0,15.0,84,0.00,,,0.00,Wunderground v.1.15,2013-11-22 01:40:00,
2013-11-21 19:45:00,19.4,15.4,30.63,WNW,287,12.0,15.0,84,0.00,,,0.00,Wunderground v.1.15,2013-11-22 01:45:00,
2013-11-21 19:55:00,19.3,15.3,30.63,North,5,11.0,11.0,84,0.00,,,0.00,Wunderground v.1.15,2013-11-22 01:55:00,
2013-11-21 20:00:00,19.3,15.5,30.63,NW,317,10.0,16.0,85,0.00,,,0.00,Wunderground v.1.15,2013-11-22 02:00:00,
2013-11-21 20:05:00,19.3,15.5,30.64,North,355,9.0,16.0,85,0.00,,,0.00,Wunderground v.1.15,2013-11-22 02:05:00,
2013-11-21 20:10:00,19.2,15.4,30.64,NW,324,10.0,23.0,85,0.00,,,0.00,Wunderground v.1.15,2013-11-22 02:10:00,
2013-11-21 20:15:00,19.1,15.3,30.65,NNW,340,13.0,23.0,85,0.00,,,0.00,Wunderground v.1.15,2013-11-22 02:15:00,
2013-11-21 20:20:00,19.1,15.3,30.65,North,351,14.0,14.0,85,0.00,,,0.00,Wunderground v.1.15,2013-11-22 02:20:00,
2013-11-21 20:30:00,19.0,15.2,30.65,NW,325,11.0,13.0,85,0.00,,,0.00,Wunderground v.1.15,2013-11-22 02:30:00,
2013-11-21 20:35:00,19.0,15.5,30.66,NNW,333,11.0,13.0,86,0.00,,,0.00,Wunderground v.1.15,2013-11-22 02:35:00,
2013-11-21 20:40:00,19.0,15.2,30.67,NW,317,11.0,11.0,85,0.00,,,0.00,Wunderground v.1.15,2013-11-22 02:40:00,
2013-11-21 20:45:00,18.9,15.4,30.66,North,355,11.0,11.0,86,0.00,,,0.00,Wunderground v.1.15,2013-11-22 02:45:00,
2013-11-21 20:50:00,18.8,15.0,30.66,NW,323,12.0,12.0,85,0.00,,,0.00,Wunderground v.1.15,2013-11-22 02:50:00,
2013-11-21 21:00:00,18.8,14.8,30.66,North,5,13.0,19.0,84,0.00,,,0.00,Wunderground v.1.15,2013-11-22 03:00:00,
2013-11-21 21:05:00,18.7,14.7,30.67,NNW,336,14.0,19.0,84,0.00,,,0.00,Wunderground v.1.15,2013-11-22 03:05:00,
2013-11-21 21:10:00,18.6,14.3,30.67,NNE,13,13.0,13.0,83,0.00,,,0.00,Wunderground v.1.15,2013-11-22 03:10:00,
2013-11-21 21:15:00,18.6,14.6,30.67,NNW,346,12.0,13.0,84,0.00,,,0.00,Wunderground v.1.15,2013-11-22 03:15:00,
2013-11-21 21:20:00,18.4,14.4,30.67,NNW,339,12.0,12.0,84,0.00,,,0.00,Wunderground v.1.15,2013-11-22 03:20:00,
2013-11-21 21:25:00,18.4,14.4,30.68,NW,307,12.0,15.0,84,0.00,,,0.00,Wunderground v.1.15,2013-11-22 03:25:00,
2013-11-21 21:30:00,18.4,14.4,30.68,NNW,327,12.0,12.0,84,0.00,,,0.00,Wunderground v.1.15,2013-11-22 03:30:00,
2013-11-21 21:35:00,18.5,14.5,30.68,North,355,12.0,13.0,84,0.00,,,0.00,Wunderground v.1.15,2013-11-22 03:35:00,
2013-11-21 21:40:00,18.5,14.5,30.68,North,5,11.0,11.0,84,0.00,,,0.00,Wunderground v.1.15,2013-11-22 03:40:00,
2013-11-21 21:45:00,18.5,14.5,30.69,NW,326,11.0,11.0,84,0.00,,,0.00,Wunderground v.1.15,2013-11-22 03:45:00,
2013-11-21 21:50:00,18.5,14.5,30.69,NNW,331,13.0,16.0,84,0.00,,,0.00,Wunderground v.1.15,2013-11-22 03:50:00,
2013-11-21 21:55:00,18.5,14.2,30.69,NNW,340,13.0,20.0,83,0.00,,,0.00,Wunderground v.1.15,2013-11-22 03:55:00,
2013-11-21 22:05:00,18.5,14.2,30.70,WNW,303,12.0,22.0,83,0.00,,,0.00,Wunderground v.1.15,2013-11-22 04:05:00,
2013-11-21 22:10:00,18.5,14.2,30.70,NW,309,13.0,23.0,83,0.00,,,0.00,Wunderground v.1.15,2013-11-22 04:10:00,
2013-11-21 22:15:00,18.5,14.2,30.70,NNW,331,14.0,23.0,83,0.00,,,0.00,Wunderground v.1.15,2013-11-22 04:15:00,
2013-11-21 22:20:00,18.5,13.9,30.71,North,9,15.0,15.0,82,0.00,,,0.00,Wunderground v.1.15,2013-11-22 04:20:00,
2013-11-21 22:25:00,18.6,14.0,30.71,NW,319,15.0,15.0,82,0.00,,,0.00,Wunderground v.1.15,2013-11-22 04:25:00,
2013-11-21 22:30:00,18.6,14.0,30.71,NW,317,15.0,15.0,82,0.00,,,0.00,Wunderground v.1.15,2013-11-22 04:30:00,
2013-11-21 22:35:00,18.6,14.0,30.70,North,360,13.0,18.0,82,0.00,,,0.00,Wunderground v.1.15,2013-11-22 04:35:00,
2013-11-21 22:40:00,18.5,13.6,30.71,NW,312,14.0,24.0,81,0.00,,,0.00,Wunderground v.1.15,2013-11-22 04:40:00,
2013-11-21 22:45:00,18.4,13.3,30.72,NW,318,17.0,24.0,80,0.00,,,0.00,Wunderground v.1.15,2013-11-22 04:45:00,
2013-11-21 22:50:00,18.4,13.5,30.73,NNW,327,18.0,21.0,81,0.00,,,0.00,Wunderground v.1.15,2013-11-22 04:50:00,
2013-11-21 22:55:00,18.4,13.5,30.73,WNW,301,15.0,21.0,81,0.00,,,0.00,Wunderground v.1.15,2013-11-22 04:55:00,
2013-11-21 23:00:00,18.3,13.2,30.72,NW,305,13.0,15.0,80,0.00,,,0.00,Wunderground v.1.15,2013-11-22 05:00:00,
2013-11-21 23:05:00,18.3,13.2,30.73,NNW,333,13.0,15.0,80,0.00,,,0.00,Wunderground v.1.15,2013-11-22 05:05:00,
2013-11-21 23:10:00,18.2,13.3,30.73,NW,314,12.0,14.0,81,0.00,,,0.00,Wunderground v.1.15,2013-11-22 05:10:00,
2013-11-21 23:15:00,18.2,13.3,30.73,NNW,340,12.0,14.0,81,0.00,,,0.00,Wunderground v.1.15,2013-11-22 05:15:00,
2013-11-21 23:20:00,18.3,13.2,30.73,NW,323,12.0,18.0,80,0.00,,,0.00,Wunderground v.1.15,2013-11-22 05:20:00,
2013-11-21 23:25:00,18.2,12.8,30.74,North,360,14.0,20.0,79,0.00,,,0.00,Wunderground v.1.15,2013-11-22 05:25:00,
2013-11-21 23:30:00,18.3,13.2,30.74,NNW,327,13.0,13.0,80,0.00,,,0.00,Wunderground v.1.15,2013-11-22 05:30:00,
2013-11-21 23:40:00,18.2,13.1,30.74,North,355,10.0,10.0,80,0.00,,,0.00,Wunderground v.1.15,2013-11-22 05:40:00,
2013-11-21 23:45:00,18.2,13.1,30.74,NNW,338,10.0,10.0,80,0.00,,,0.00,Wunderground v.1.15,2013-11-22 05:45:00,
2013-11-21 23:50:00,18.3,12.9,30.75,NNW,340,11.0,14.0,79,0.00,,,0.00,Wunderground v.1.15,2013-11-22 05:50:00,
2013-11-21 23:55:00,18.2,12.8,30.74,NW,320,11.0,14.0,79,0.00,,,0.00,Wunderground v.1.15,2013-11-22 05:55:00,